Погода в Дзаудзи

Майотта     12°46′58″S   45°13′51″E
темп.,
°C
ветер,
м/с
пор.,
м/с
влажн.,
%
обл.,
%
осадки,
мм/ч
давл.,
гПа
погр.,
м
29 июня, ср
ср2900:00+25юв1313675 0.3 10191262
03:00+24юв12126613 0.3 10181397
06:00+24юв11116610 0.0 10181177
09:00+24юв996562 0.0 10201300
12:00+24юв986524 0.0 10191056
15:00+24юв65645 0.0 1018875
18:00+24ююв55615 0.0 1018874
21:00+25ююв56600 0.0 1019989
30 июня, чт
чт3000:00+25юв78683 0.0 10191132
03:00+24ююв99704 0.0 10171143
06:00+24ююв896991 0.0 10181230
09:00+25ююв7766100 0.1 10201109
12:00+25юв87655 0.1 10191238
15:00+25юв87686 0.3 10171063
18:00+25юв67664 0.0 1018844
21:00+25юв476238 0.0 1020805
1 июля, пт
пт100:00+25юв9106898 0.0 10191027
03:00+25ююв111269100 0.0 10181385
06:00+25ююв10116584 0.1 10191387
09:00+25юв1112658 0.1 10201447
12:00+25юв10116598 0.0 10191402
15:00+25юв996316 0.0 10181079
18:00+25ююв79615 0.0 10181448
21:00+26ююв5967100 0.0 10191227
2 июля, сб
сб200:00+25юв121374100 0.1 1019974
03:00+25юв910716 0.3 10181003
06:00+24юв77723 0.2 1019994
09:00+25юв887212 0.3 1020969
12:00+25юв887220 0.2 1019998
15:00+25юв887028 0.3 10171096
18:00+25юв67645 0.0 10191038
21:00+25ююв56647 0.0 1020763
3 июля, вс
вс300:00+25ююв10116915 0.1 10201115
03:00+24юв1010707 0.1 10181035
06:00+25юв9106796 0.0 10191302
09:00+25юв996742 0.0 10201240
12:00+25юв996699 0.0 10181325
15:00+25юв8867100 0.0 10171231
18:00+25юв77627 0.0 10181051
21:00+26вюв486517 0.0 1019738